User: anonymous   Login
Location: Caltech
(34.1382°N, 118.1253°W)
Time: 03:46:12
(UTC-07:00)
Language:

ADEOS II - Orbit

View from above orbital plane
View from above orbital plane
View from above satellite
View from above satellite

Ground track
Ground track

The orbit data is extracted from the following two-line orbital elements,

1 27597U 02056A   18114.86189038  .00421506  00000-0  15609+0 0  9999
2 27597  98.4154  76.9442 0001005 100.4267 259.7030 14.30064480799888
Epoch (UTC): 24 April 2018 20:41:07
Eccentricity: 0.0001005
inclination: 98.4154°
perigee height: 791 km
apogee height: 792 km
right ascension of ascending node: 76.9442°
argument of perigee: 100.4267°
revolutions per day: 14.30064480
mean anomaly at epoch: 259.7030°
orbit number at epoch: 79988

The dashed part of the orbit path shows where the satellite is in the earth's shadow,  

DLR